owner,sensor,date,latitude,longitude,vertical_datum,sea_water_temperature,qcFlag 
DISL,ioos:station:DISL:MHPA:1,2008-04-01T00:00:00Z,30.6671,-87.9365,-0.9,20.04,2 
DISL,ioos:station:DISL:MHPA:1,2008-04-01T00:30:00Z,30.6671,-87.9365,-0.9,19.93,2 
DISL,ioos:station:DISL:MHPA:1,2008-04-01T01:00:00Z,30.6671,-87.9365,-0.9,19.96,2 
DISL,ioos:station:DISL:MHPA:1,2008-04-01T01:30:00Z,30.6671,-87.9365,-0.9,19.88,2 
DISL,ioos:station:DISL:MHPA:1,2008-04-01T02:00:00Z,30.6671,-87.9365,-0.9,19.84,2 
DISL,ioos:station:DISL:MHPA:1,2008-04-01T02:30:00Z,30.6671,-87.9365,-0.9,19.83,2 
DISL,ioos:station:DISL:MHPA:1,2008-04-01T03:00:00Z,30.6671,-87.9365,-0.9,19.81,2 
DISL,ioos:station:DISL:MHPA:1,2008-04-01T03:30:00Z,30.6671,-87.9365,-0.9,19.75,2 
DISL,ioos:station:DISL:MHPA:1,2008-04-01T04:00:00Z,30.6671,-87.9365,-0.9,19.7,2 
DISL,ioos:station:DISL:MHPA:1,2008-04-01T04:30:00Z,30.6671,-87.9365,-0.9,19.7,2 
DISL,ioos:station:DISL:MHPA:1,2008-04-01T05:00:00Z,30.6671,-87.9365,-0.9,19.67,2 
DISL,ioos:station:DISL:MHPA:1,2008-04-01T05:30:00Z,30.6671,-87.9365,-0.9,19.63,2 
DISL,ioos:station:DISL:MHPA:1,2008-04-01T06:00:00Z,30.6671,-87.9365,-0.9,19.56,2 
DISL,ioos:station:DISL:MHPA:1,2008-04-01T06:30:00Z,30.6671,-87.9365,-0.9,19.55,2 
DISL,ioos:station:DISL:MHPA:1,2008-04-01T07:00:00Z,30.6671,-87.9365,-0.9,19.53,2 
DISL,ioos:station:DISL:MHPA:1,2008-04-01T07:30:00Z,30.6671,-87.9365,-0.9,19.54,2 
DISL,ioos:station:DISL:MHPA:1,2008-04-01T08:00:00Z,30.6671,-87.9365,-0.9,19.43,2 
DISL,ioos:station:DISL:MHPA:1,2008-04-01T08:30:00Z,30.6671,-87.9365,-0.9,19.43,2 
DISL,ioos:station:DISL:MHPA:1,2008-04-01T09:00:00Z,30.6671,-87.9365,-0.9,19.44,2 
DISL,ioos:station:DISL:MHPA:1,2008-04-01T09:30:00Z,30.6671,-87.9365,-0.9,19.44,2 
DISL,ioos:station:DISL:MHPA:1,2008-04-01T10:00:00Z,30.6671,-87.9365,-0.9,19.45,2 
DISL,ioos:station:DISL:MHPA:1,2008-04-01T10:30:00Z,30.6671,-87.9365,-0.9,19.45,2 
DISL,ioos:station:DISL:MHPA:1,2008-04-01T11:00:00Z,30.6671,-87.9365,-0.9,19.44,2 
DISL,ioos:station:DISL:MHPA:1,2008-04-01T11:30:00Z,30.6671,-87.9365,-0.9,19.43,2 
DISL,ioos:station:DISL:MHPA:1,2008-04-01T12:00:00Z,30.6671,-87.9365,-0.9,19.39,2 
DISL,ioos:station:DISL:MHPA:1,2008-04-01T12:30:00Z,30.6671,-87.9365,-0.9,19.39,2 
DISL,ioos:station:DISL:MHPA:1,2008-04-01T13:00:00Z,30.6671,-87.9365,-0.9,19.4,2 
DISL,ioos:station:DISL:MHPA:1,2008-04-01T13:30:00Z,30.6671,-87.9365,-0.9,19.42,2 
DISL,ioos:station:DISL:MHPA:1,2008-04-01T14:00:00Z,30.6671,-87.9365,-0.9,19.48,2 
DISL,ioos:station:DISL:MHPA:1,2008-04-01T14:30:00Z,30.6671,-87.9365,-0.9,19.52,2 
DISL,ioos:station:DISL:MHPA:1,2008-04-01T15:00:00Z,30.6671,-87.9365,-0.9,19.61,2 
DISL,ioos:station:DISL:MHPA:1,2008-04-01T15:30:00Z,30.6671,-87.9365,-0.9,19.64,2 
DISL,ioos:station:DISL:MHPA:1,2008-04-01T16:00:00Z,30.6671,-87.9365,-0.9,19.67,2 
DISL,ioos:station:DISL:MHPA:1,2008-04-01T16:30:00Z,30.6671,-87.9365,-0.9,19.67,2 
DISL,ioos:station:DISL:MHPA:1,2008-04-01T17:00:00Z,30.6671,-87.9365,-0.9,19.67,2 
DISL,ioos:station:DISL:MHPA:1,2008-04-01T17:30:00Z,30.6671,-87.9365,-0.9,19.83,2 
DISL,ioos:station:DISL:MHPA:1,2008-04-01T18:00:00Z,30.6671,-87.9365,-0.9,19.88,2 
DISL,ioos:station:DISL:MHPA:1,2008-04-01T18:30:00Z,30.6671,-87.9365,-0.9,19.92,2 
DISL,ioos:station:DISL:MHPA:1,2008-04-01T19:00:00Z,30.6671,-87.9365,-0.9,20.01,2 
DISL,ioos:station:DISL:MHPA:1,2008-04-01T19:30:00Z,30.6671,-87.9365,-0.9,20.03,2 
DISL,ioos:station:DISL:MHPA:1,2008-04-01T20:00:00Z,30.6671,-87.9365,-0.9,20.05,2 
DISL,ioos:station:DISL:MHPA:1,2008-04-01T20:30:00Z,30.6671,-87.9365,-0.9,20.28,2 
DISL,ioos:station:DISL:MHPA:1,2008-04-01T21:00:00Z,30.6671,-87.9365,-0.9,20.04,2 
DISL,ioos:station:DISL:MHPA:1,2008-04-01T21:30:00Z,30.6671,-87.9365,-0.9,19.95,2 
DISL,ioos:station:DISL:MHPA:1,2008-04-01T22:00:00Z,30.6671,-87.9365,-0.9,19.71,2 
DISL,ioos:station:DISL:MHPA:1,2008-04-01T22:30:00Z,30.6671,-87.9365,-0.9,19.84,2 
DISL,ioos:station:DISL:MHPA:1,2008-04-01T23:00:00Z,30.6671,-87.9365,-0.9,19.89,2 
DISL,ioos:station:DISL:MHPA:1,2008-04-01T23:30:00Z,30.6671,-87.9365,-0.9,19.77,2 
DISL,ioos:station:DISL:MHPA:1,2008-04-02T00:00:00Z,30.6671,-87.9365,-0.9,19.84,2 
DISL,ioos:station:DISL:MHPA:1,2008-04-02T00:30:00Z,30.6671,-87.9365,-0.9,19.86,2 
DISL,ioos:station:DISL:MHPA:1,2008-04-02T01:00:00Z,30.6671,-87.9365,-0.9,19.85,2 
DISL,ioos:station:DISL:MHPA:1,2008-04-02T01:30:00Z,30.6671,-87.9365,-0.9,20.11,2 
DISL,ioos:station:DISL:MHPA:1,2008-04-02T02:00:00Z,30.6671,-87.9365,-0.9,20.36,2 
DISL,ioos:station:DISL:MHPA:1,2008-04-02T02:30:00Z,30.6671,-87.9365,-0.9,20.22,2 
DISL,ioos:station:DISL:MHPA:1,2008-04-02T03:00:00Z,30.6671,-87.9365,-0.9,20.28,2 
DISL,ioos:station:DISL:MHPA:1,2008-04-02T03:30:00Z,30.6671,-87.9365,-0.9,20.24,2 
DISL,ioos:station:DISL:MHPA:1,2008-04-02T04:00:00Z,30.6671,-87.9365,-0.9,20.22,2 
DISL,ioos:station:DISL:MHPA:1,2008-04-02T04:30:00Z,30.6671,-87.9365,-0.9,20.2,2 
DISL,ioos:station:DISL:MHPA:1,2008-04-02T05:00:00Z,30.6671,-87.9365,-0.9,20.19,2 
DISL,ioos:station:DISL:MHPA:1,2008-04-02T05:30:00Z,30.6671,-87.9365,-0.9,20.2,2 
DISL,ioos:station:DISL:MHPA:1,2008-04-02T06:00:00Z,30.6671,-87.9365,-0.9,20.14,2 
DISL,ioos:station:DISL:MHPA:1,2008-04-02T06:30:00Z,30.6671,-87.9365,-0.9,20.16,2 
DISL,ioos:station:DISL:MHPA:1,2008-04-02T07:00:00Z,30.6671,-87.9365,-0.9,20.13,2 
DISL,ioos:station:DISL:MHPA:1,2008-04-02T07:30:00Z,30.6671,-87.9365,-0.9,20.07,2 
DISL,ioos:station:DISL:MHPA:1,2008-04-02T08:00:00Z,30.6671,-87.9365,-0.9,19.79,2 
DISL,ioos:station:DISL:MHPA:1,2008-04-02T08:30:00Z,30.6671,-87.9365,-0.9,19.68,2 
DISL,ioos:station:DISL:MHPA:1,2008-04-02T09:00:00Z,30.6671,-87.9365,-0.9,19.85,2 
DISL,ioos:station:DISL:MHPA:1,2008-04-02T09:30:00Z,30.6671,-87.9365,-0.9,19.75,2 
DISL,ioos:station:DISL:MHPA:1,2008-04-02T10:00:00Z,30.6671,-87.9365,-0.9,19.45,2 
DISL,ioos:station:DISL:MHPA:1,2008-04-02T10:30:00Z,30.6671,-87.9365,-0.9,19.33,2 
DISL,ioos:station:DISL:MHPA:1,2008-04-02T11:00:00Z,30.6671,-87.9365,-0.9,19.3,2 
DISL,ioos:station:DISL:MHPA:1,2008-04-02T11:30:00Z,30.6671,-87.9365,-0.9,19.35,2 
DISL,ioos:station:DISL:MHPA:1,2008-04-02T12:00:00Z,30.6671,-87.9365,-0.9,19.36,2 
DISL,ioos:station:DISL:MHPA:1,2008-04-02T12:30:00Z,30.6671,-87.9365,-0.9,19.37,2 
DISL,ioos:station:DISL:MHPA:1,2008-04-02T13:00:00Z,30.6671,-87.9365,-0.9,19.55,2 
DISL,ioos:station:DISL:MHPA:1,2008-04-02T13:30:00Z,30.6671,-87.9365,-0.9,19.64,2 
DISL,ioos:station:DISL:MHPA:1,2008-04-02T14:00:00Z,30.6671,-87.9365,-0.9,19.66,2 
DISL,ioos:station:DISL:MHPA:1,2008-04-02T14:30:00Z,30.6671,-87.9365,-0.9,19.68,2 
DISL,ioos:station:DISL:MHPA:1,2008-04-02T15:00:00Z,30.6671,-87.9365,-0.9,19.7,2 
DISL,ioos:station:DISL:MHPA:1,2008-04-02T15:30:00Z,30.6671,-87.9365,-0.9,19.78,2 
DISL,ioos:station:DISL:MHPA:1,2008-04-02T16:00:00Z,30.6671,-87.9365,-0.9,19.86,2 
DISL,ioos:station:DISL:MHPA:1,2008-04-02T16:30:00Z,30.6671,-87.9365,-0.9,19.87,2 
DISL,ioos:station:DISL:MHPA:1,2008-04-02T17:00:00Z,30.6671,-87.9365,-0.9,19.53,2 
DISL,ioos:station:DISL:MHPA:1,2008-04-02T17:30:00Z,30.6671,-87.9365,-0.9,19.63,2 
DISL,ioos:station:DISL:MHPA:1,2008-04-02T18:00:00Z,30.6671,-87.9365,-0.9,19.55,2 
DISL,ioos:station:DISL:MHPA:1,2008-04-02T18:30:00Z,30.6671,-87.9365,-0.9,19.5,2 
DISL,ioos:station:DISL:MHPA:1,2008-04-02T19:00:00Z,30.6671,-87.9365,-0.9,20.56,2 
DISL,ioos:station:DISL:MHPA:1,2008-04-02T19:30:00Z,30.6671,-87.9365,-0.9,22.61,2 
DISL,ioos:station:DISL:MHPA:1,2008-04-02T20:00:00Z,30.6671,-87.9365,-0.9,22.9,2 
DISL,ioos:station:DISL:MHPA:1,2008-04-02T20:30:00Z,30.6671,-87.9365,-0.9,23.13,2 
DISL,ioos:station:DISL:MHPA:1,2008-04-02T21:00:00Z,30.6671,-87.9365,-0.9,22.91,2 
DISL,ioos:station:DISL:MHPA:1,2008-04-02T21:30:00Z,30.6671,-87.9365,-0.9,21.89,2 
DISL,ioos:station:DISL:MHPA:1,2008-04-02T22:00:00Z,30.6671,-87.9365,-0.9,23.46,2 
DISL,ioos:station:DISL:MHPA:1,2008-04-02T22:30:00Z,30.6671,-87.9365,-0.9,23.9,2 
DISL,ioos:station:DISL:MHPA:1,2008-04-02T23:00:00Z,30.6671,-87.9365,-0.9,23.96,2 
DISL,ioos:station:DISL:MHPA:1,2008-04-02T23:30:00Z,30.6671,-87.9365,-0.9,23.89,2 
DISL,ioos:station:DISL:MHPA:1,2008-04-03T00:00:00Z,30.6671,-87.9365,-0.9,24.15,2 
DISL,ioos:station:DISL:MHPA:1,2008-04-03T00:30:00Z,30.6671,-87.9365,-0.9,24.17,2 
DISL,ioos:station:DISL:MHPA:1,2008-04-03T01:00:00Z,30.6671,-87.9365,-0.9,24.11,2 
DISL,ioos:station:DISL:MHPA:1,2008-04-03T01:30:00Z,30.6671,-87.9365,-0.9,23.58,2 
DISL,ioos:station:DISL:MHPA:1,2008-04-03T02:00:00Z,30.6671,-87.9365,-0.9,23.47,2 
DISL,ioos:station:DISL:MHPA:1,2008-04-03T02:30:00Z,30.6671,-87.9365,-0.9,23.85,2 
DISL,ioos:station:DISL:MHPA:1,2008-04-03T03:00:00Z,30.6671,-87.9365,-0.9,23.77,2 
DISL,ioos:station:DISL:MHPA:1,2008-04-03T03:30:00Z,30.6671,-87.9365,-0.9,22.65,2 
DISL,ioos:station:DISL:MHPA:1,2008-04-03T04:00:00Z,30.6671,-87.9365,-0.9,22.3,2 
DISL,ioos:station:DISL:MHPA:1,2008-04-03T04:30:00Z,30.6671,-87.9365,-0.9,23.11,2 
DISL,ioos:station:DISL:MHPA:1,2008-04-03T05:00:00Z,30.6671,-87.9365,-0.9,23.39,2 
DISL,ioos:station:DISL:MHPA:1,2008-04-03T05:30:00Z,30.6671,-87.9365,-0.9,23.05,2 
DISL,ioos:station:DISL:MHPA:1,2008-04-03T06:00:00Z,30.6671,-87.9365,-0.9,22.15,2 
DISL,ioos:station:DISL:MHPA:1,2008-04-03T06:30:00Z,30.6671,-87.9365,-0.9,22.34,2 
DISL,ioos:station:DISL:MHPA:1,2008-04-03T07:00:00Z,30.6671,-87.9365,-0.9,22.38,2 
DISL,ioos:station:DISL:MHPA:1,2008-04-03T07:30:00Z,30.6671,-87.9365,-0.9,22.32,2 
DISL,ioos:station:DISL:MHPA:1,2008-04-03T08:00:00Z,30.6671,-87.9365,-0.9,22.54,2 
DISL,ioos:station:DISL:MHPA:1,2008-04-03T08:30:00Z,30.6671,-87.9365,-0.9,22.52,2 
DISL,ioos:station:DISL:MHPA:1,2008-04-03T09:00:00Z,30.6671,-87.9365,-0.9,21.84,2 
DISL,ioos:station:DISL:MHPA:1,2008-04-03T09:30:00Z,30.6671,-87.9365,-0.9,21.08,2 
DISL,ioos:station:DISL:MHPA:1,2008-04-03T10:00:00Z,30.6671,-87.9365,-0.9,21.21,2 
DISL,ioos:station:DISL:MHPA:1,2008-04-03T10:30:00Z,30.6671,-87.9365,-0.9,21.15,2 
DISL,ioos:station:DISL:MHPA:1,2008-04-03T11:00:00Z,30.6671,-87.9365,-0.9,21.01,2 
DISL,ioos:station:DISL:MHPA:1,2008-04-03T11:30:00Z,30.6671,-87.9365,-0.9,20.94,2 
DISL,ioos:station:DISL:MHPA:1,2008-04-03T12:00:00Z,30.6671,-87.9365,-0.9,21.03,2 
DISL,ioos:station:DISL:MHPA:1,2008-04-03T12:30:00Z,30.6671,-87.9365,-0.9,21.07,2 
DISL,ioos:station:DISL:MHPA:1,2008-04-03T13:00:00Z,30.6671,-87.9365,-0.9,20.97,2 
DISL,ioos:station:DISL:MHPA:1,2008-04-03T13:30:00Z,30.6671,-87.9365,-0.9,21.27,2 
DISL,ioos:station:DISL:MHPA:1,2008-04-03T14:00:00Z,30.6671,-87.9365,-0.9,21.41,2 
DISL,ioos:station:DISL:MHPA:1,2008-04-03T14:30:00Z,30.6671,-87.9365,-0.9,21.46,2 
DISL,ioos:station:DISL:MHPA:1,2008-04-03T15:00:00Z,30.6671,-87.9365,-0.9,21.53,2 
DISL,ioos:station:DISL:MHPA:1,2008-04-03T15:30:00Z,30.6671,-87.9365,-0.9,21.78,2 
DISL,ioos:station:DISL:MHPA:1,2008-04-03T16:00:00Z,30.6671,-87.9365,-0.9,22.1,2 
DISL,ioos:station:DISL:MHPA:1,2008-04-03T16:30:00Z,30.6671,-87.9365,-0.9,22.41,2 
DISL,ioos:station:DISL:MHPA:1,2008-04-03T17:00:00Z,30.6671,-87.9365,-0.9,22.61,2 
DISL,ioos:station:DISL:MHPA:1,2008-04-03T17:30:00Z,30.6671,-87.9365,-0.9,23.07,2 
DISL,ioos:station:DISL:MHPA:1,2008-04-03T18:00:00Z,30.6671,-87.9365,-0.9,23.19,2 
DISL,ioos:station:DISL:MHPA:1,2008-04-03T18:30:00Z,30.6671,-87.9365,-0.9,23.36,2 
DISL,ioos:station:DISL:MHPA:1,2008-04-03T19:00:00Z,30.6671,-87.9365,-0.9,23.71,2 
DISL,ioos:station:DISL:MHPA:1,2008-04-03T19:30:00Z,30.6671,-87.9365,-0.9,24.05,2 
DISL,ioos:station:DISL:MHPA:1,2008-04-03T20:00:00Z,30.6671,-87.9365,-0.9,24.42,2 
DISL,ioos:station:DISL:MHPA:1,2008-04-03T20:30:00Z,30.6671,-87.9365,-0.9,24.84,2 
DISL,ioos:station:DISL:MHPA:1,2008-04-03T21:00:00Z,30.6671,-87.9365,-0.9,25.14,2 
DISL,ioos:station:DISL:MHPA:1,2008-04-03T21:30:00Z,30.6671,-87.9365,-0.9,25.0,2 
DISL,ioos:station:DISL:MHPA:1,2008-04-03T22:00:00Z,30.6671,-87.9365,-0.9,25.24,2 
DISL,ioos:station:DISL:MHPA:1,2008-04-03T22:30:00Z,30.6671,-87.9365,-0.9,24.78,2 
DISL,ioos:station:DISL:MHPA:1,2008-04-03T23:00:00Z,30.6671,-87.9365,-0.9,24.39,2 
DISL,ioos:station:DISL:MHPA:1,2008-04-03T23:30:00Z,30.6671,-87.9365,-0.9,24.39,2 
DISL,ioos:station:DISL:MHPA:1,2008-04-04T00:00:00Z,30.6671,-87.9365,-0.9,24.43,2 
DISL,ioos:station:DISL:MHPA:1,2008-04-04T00:30:00Z,30.6671,-87.9365,-0.9,24.4,2 
DISL,ioos:station:DISL:MHPA:1,2008-04-04T01:00:00Z,30.6671,-87.9365,-0.9,24.42,2 
DISL,ioos:station:DISL:MHPA:1,2008-04-04T01:30:00Z,30.6671,-87.9365,-0.9,24.2,2 
DISL,ioos:station:DISL:MHPA:1,2008-04-04T02:00:00Z,30.6671,-87.9365,-0.9,24.19,2 
DISL,ioos:station:DISL:MHPA:1,2008-04-04T02:30:00Z,30.6671,-87.9365,-0.9,24.1,2 
DISL,ioos:station:DISL:MHPA:1,2008-04-04T03:00:00Z,30.6671,-87.9365,-0.9,23.87,2 
DISL,ioos:station:DISL:MHPA:1,2008-04-04T03:30:00Z,30.6671,-87.9365,-0.9,23.99,2 
DISL,ioos:station:DISL:MHPA:1,2008-04-04T04:00:00Z,30.6671,-87.9365,-0.9,23.98,2 
DISL,ioos:station:DISL:MHPA:1,2008-04-04T04:30:00Z,30.6671,-87.9365,-0.9,23.91,2 
DISL,ioos:station:DISL:MHPA:1,2008-04-04T05:00:00Z,30.6671,-87.9365,-0.9,23.75,2 
DISL,ioos:station:DISL:MHPA:1,2008-04-04T05:30:00Z,30.6671,-87.9365,-0.9,23.79,2 
DISL,ioos:station:DISL:MHPA:1,2008-04-04T06:00:00Z,30.6671,-87.9365,-0.9,23.72,2 
DISL,ioos:station:DISL:MHPA:1,2008-04-04T06:30:00Z,30.6671,-87.9365,-0.9,23.61,2 
DISL,ioos:station:DISL:MHPA:1,2008-04-04T07:00:00Z,30.6671,-87.9365,-0.9,23.62,2 
DISL,ioos:station:DISL:MHPA:1,2008-04-04T07:30:00Z,30.6671,-87.9365,-0.9,23.43,2 
DISL,ioos:station:DISL:MHPA:1,2008-04-04T08:00:00Z,30.6671,-87.9365,-0.9,23.35,2 
DISL,ioos:station:DISL:MHPA:1,2008-04-04T08:30:00Z,30.6671,-87.9365,-0.9,23.43,2 
DISL,ioos:station:DISL:MHPA:1,2008-04-04T09:00:00Z,30.6671,-87.9365,-0.9,23.44,2 
DISL,ioos:station:DISL:MHPA:1,2008-04-04T09:30:00Z,30.6671,-87.9365,-0.9,23.47,2 
DISL,ioos:station:DISL:MHPA:1,2008-04-04T10:00:00Z,30.6671,-87.9365,-0.9,23.44,2 
DISL,ioos:station:DISL:MHPA:1,2008-04-04T10:30:00Z,30.6671,-87.9365,-0.9,23.4,2 
DISL,ioos:station:DISL:MHPA:1,2008-04-04T11:00:00Z,30.6671,-87.9365,-0.9,23.31,2 
DISL,ioos:station:DISL:MHPA:1,2008-04-04T11:30:00Z,30.6671,-87.9365,-0.9,23.21,2 
DISL,ioos:station:DISL:MHPA:1,2008-04-04T12:00:00Z,30.6671,-87.9365,-0.9,23.14,2 
DISL,ioos:station:DISL:MHPA:1,2008-04-04T12:30:00Z,30.6671,-87.9365,-0.9,23.09,2 
DISL,ioos:station:DISL:MHPA:1,2008-04-04T13:00:00Z,30.6671,-87.9365,-0.9,23.07,2 
DISL,ioos:station:DISL:MHPA:1,2008-04-04T13:30:00Z,30.6671,-87.9365,-0.9,23.05,2 
DISL,ioos:station:DISL:MHPA:1,2008-04-04T14:00:00Z,30.6671,-87.9365,-0.9,23.05,2 
DISL,ioos:station:DISL:MHPA:1,2008-04-04T14:30:00Z,30.6671,-87.9365,-0.9,23.06,2 
DISL,ioos:station:DISL:MHPA:1,2008-04-04T15:00:00Z,30.6671,-87.9365,-0.9,23.09,2 
DISL,ioos:station:DISL:MHPA:1,2008-04-04T15:30:00Z,30.6671,-87.9365,-0.9,23.1,2 
DISL,ioos:station:DISL:MHPA:1,2008-04-04T16:00:00Z,30.6671,-87.9365,-0.9,23.09,2 
DISL,ioos:station:DISL:MHPA:1,2008-04-04T16:30:00Z,30.6671,-87.9365,-0.9,23.11,2 
DISL,ioos:station:DISL:MHPA:1,2008-04-04T17:00:00Z,30.6671,-87.9365,-0.9,23.11,2 
DISL,ioos:station:DISL:MHPA:1,2008-04-04T17:30:00Z,30.6671,-87.9365,-0.9,23.18,2 
DISL,ioos:station:DISL:MHPA:1,2008-04-04T18:00:00Z,30.6671,-87.9365,-0.9,23.28,2 
DISL,ioos:station:DISL:MHPA:1,2008-04-04T18:30:00Z,30.6671,-87.9365,-0.9,23.39,2 
DISL,ioos:station:DISL:MHPA:1,2008-04-04T19:00:00Z,30.6671,-87.9365,-0.9,23.53,2 
DISL,ioos:station:DISL:MHPA:1,2008-04-04T19:30:00Z,30.6671,-87.9365,-0.9,23.68,2 
DISL,ioos:station:DISL:MHPA:1,2008-04-04T20:00:00Z,30.6671,-87.9365,-0.9,23.81,2 
DISL,ioos:station:DISL:MHPA:1,2008-04-04T20:30:00Z,30.6671,-87.9365,-0.9,23.9,2 
DISL,ioos:station:DISL:MHPA:1,2008-04-04T21:00:00Z,30.6671,-87.9365,-0.9,23.92,2 
DISL,ioos:station:DISL:MHPA:1,2008-04-04T21:30:00Z,30.6671,-87.9365,-0.9,23.95,2 
DISL,ioos:station:DISL:MHPA:1,2008-04-04T22:00:00Z,30.6671,-87.9365,-0.9,24.04,2 
DISL,ioos:station:DISL:MHPA:1,2008-04-04T22:30:00Z,30.6671,-87.9365,-0.9,23.99,2 
DISL,ioos:station:DISL:MHPA:1,2008-04-04T23:00:00Z,30.6671,-87.9365,-0.9,24.07,2 
DISL,ioos:station:DISL:MHPA:1,2008-04-04T23:30:00Z,30.6671,-87.9365,-0.9,24.15,2 
DISL,ioos:station:DISL:MHPA:1,2008-04-05T00:00:00Z,30.6671,-87.9365,-0.9,24.14,2 
DISL,ioos:station:DISL:MHPA:1,2008-04-05T00:30:00Z,30.6671,-87.9365,-0.9,24.05,2 
DISL,ioos:station:DISL:MHPA:1,2008-04-05T01:00:00Z,30.6671,-87.9365,-0.9,24.13,2 
DISL,ioos:station:DISL:MHPA:1,2008-04-05T01:30:00Z,30.6671,-87.9365,-0.9,24.15,2 
DISL,ioos:station:DISL:MHPA:1,2008-04-05T02:00:00Z,30.6671,-87.9365,-0.9,24.08,2 
DISL,ioos:station:DISL:MHPA:1,2008-04-05T02:30:00Z,30.6671,-87.9365,-0.9,24.12,2 
DISL,ioos:station:DISL:MHPA:1,2008-04-05T03:00:00Z,30.6671,-87.9365,-0.9,24.14,2 
DISL,ioos:station:DISL:MHPA:1,2008-04-05T03:30:00Z,30.6671,-87.9365,-0.9,24.11,2 
DISL,ioos:station:DISL:MHPA:1,2008-04-05T04:00:00Z,30.6671,-87.9365,-0.9,23.98,2 
DISL,ioos:station:DISL:MHPA:1,2008-04-05T04:30:00Z,30.6671,-87.9365,-0.9,23.84,2 
DISL,ioos:station:DISL:MHPA:1,2008-04-05T05:00:00Z,30.6671,-87.9365,-0.9,23.62,2 
DISL,ioos:station:DISL:MHPA:1,2008-04-05T05:30:00Z,30.6671,-87.9365,-0.9,23.58,2 
DISL,ioos:station:DISL:MHPA:1,2008-04-05T06:00:00Z,30.6671,-87.9365,-0.9,23.56,2 
DISL,ioos:station:DISL:MHPA:1,2008-04-05T06:30:00Z,30.6671,-87.9365,-0.9,23.4,2 
DISL,ioos:station:DISL:MHPA:1,2008-04-05T07:00:00Z,30.6671,-87.9365,-0.9,23.36,2 
DISL,ioos:station:DISL:MHPA:1,2008-04-05T07:30:00Z,30.6671,-87.9365,-0.9,23.3,2 
DISL,ioos:station:DISL:MHPA:1,2008-04-05T08:00:00Z,30.6671,-87.9365,-0.9,23.05,2 
DISL,ioos:station:DISL:MHPA:1,2008-04-05T08:30:00Z,30.6671,-87.9365,-0.9,22.3,2 
DISL,ioos:station:DISL:MHPA:1,2008-04-05T09:00:00Z,30.6671,-87.9365,-0.9,22.76,2 
DISL,ioos:station:DISL:MHPA:1,2008-04-05T09:30:00Z,30.6671,-87.9365,-0.9,22.38,2 
DISL,ioos:station:DISL:MHPA:1,2008-04-05T10:00:00Z,30.6671,-87.9365,-0.9,22.46,2 
DISL,ioos:station:DISL:MHPA:1,2008-04-05T10:30:00Z,30.6671,-87.9365,-0.9,22.17,2 
DISL,ioos:station:DISL:MHPA:1,2008-04-05T11:00:00Z,30.6671,-87.9365,-0.9,22.23,2 
DISL,ioos:station:DISL:MHPA:1,2008-04-05T11:30:00Z,30.6671,-87.9365,-0.9,21.95,2 
DISL,ioos:station:DISL:MHPA:1,2008-04-05T12:00:00Z,30.6671,-87.9365,-0.9,21.65,2 
DISL,ioos:station:DISL:MHPA:1,2008-04-05T12:30:00Z,30.6671,-87.9365,-0.9,21.63,2 
DISL,ioos:station:DISL:MHPA:1,2008-04-05T13:00:00Z,30.6671,-87.9365,-0.9,21.8,2 
DISL,ioos:station:DISL:MHPA:1,2008-04-05T13:30:00Z,30.6671,-87.9365,-0.9,21.74,2 
DISL,ioos:station:DISL:MHPA:1,2008-04-05T14:00:00Z,30.6671,-87.9365,-0.9,20.89,2 
DISL,ioos:station:DISL:MHPA:1,2008-04-05T14:30:00Z,30.6671,-87.9365,-0.9,21.62,2 
DISL,ioos:station:DISL:MHPA:1,2008-04-05T15:00:00Z,30.6671,-87.9365,-0.9,21.39,2 
DISL,ioos:station:DISL:MHPA:1,2008-04-05T15:30:00Z,30.6671,-87.9365,-0.9,21.53,2 
DISL,ioos:station:DISL:MHPA:1,2008-04-05T16:00:00Z,30.6671,-87.9365,-0.9,21.55,2 
DISL,ioos:station:DISL:MHPA:1,2008-04-05T16:30:00Z,30.6671,-87.9365,-0.9,21.59,2 
DISL,ioos:station:DISL:MHPA:1,2008-04-05T17:00:00Z,30.6671,-87.9365,-0.9,20.85,2 
DISL,ioos:station:DISL:MHPA:1,2008-04-05T17:30:00Z,30.6671,-87.9365,-0.9,20.73,2 
DISL,ioos:station:DISL:MHPA:1,2008-04-05T18:00:00Z,30.6671,-87.9365,-0.9,20.9,2 
DISL,ioos:station:DISL:MHPA:1,2008-04-05T18:30:00Z,30.6671,-87.9365,-0.9,21.05,2 
DISL,ioos:station:DISL:MHPA:1,2008-04-05T19:00:00Z,30.6671,-87.9365,-0.9,21.01,2 
DISL,ioos:station:DISL:MHPA:1,2008-04-05T19:30:00Z,30.6671,-87.9365,-0.9,20.86,2 
DISL,ioos:station:DISL:MHPA:1,2008-04-05T20:00:00Z,30.6671,-87.9365,-0.9,20.79,2 
DISL,ioos:station:DISL:MHPA:1,2008-04-05T20:30:00Z,30.6671,-87.9365,-0.9,21.19,2 
DISL,ioos:station:DISL:MHPA:1,2008-04-05T21:00:00Z,30.6671,-87.9365,-0.9,21.1,2 
DISL,ioos:station:DISL:MHPA:1,2008-04-05T21:30:00Z,30.6671,-87.9365,-0.9,20.86,2 
DISL,ioos:station:DISL:MHPA:1,2008-04-05T22:00:00Z,30.6671,-87.9365,-0.9,20.88,2 
DISL,ioos:station:DISL:MHPA:1,2008-04-05T22:30:00Z,30.6671,-87.9365,-0.9,20.93,2 
DISL,ioos:station:DISL:MHPA:1,2008-04-05T23:00:00Z,30.6671,-87.9365,-0.9,20.87,2 
DISL,ioos:station:DISL:MHPA:1,2008-04-05T23:30:00Z,30.6671,-87.9365,-0.9,20.87,2 
DISL,ioos:station:DISL:MHPA:1,2008-04-06T00:00:00Z,30.6671,-87.9365,-0.9,20.79,2 
DISL,ioos:station:DISL:MHPA:1,2008-04-06T00:30:00Z,30.6671,-87.9365,-0.9,20.81,2 
DISL,ioos:station:DISL:MHPA:1,2008-04-06T01:00:00Z,30.6671,-87.9365,-0.9,20.79,2 
DISL,ioos:station:DISL:MHPA:1,2008-04-06T01:30:00Z,30.6671,-87.9365,-0.9,20.81,2 
DISL,ioos:station:DISL:MHPA:1,2008-04-06T02:00:00Z,30.6671,-87.9365,-0.9,20.8,2 
DISL,ioos:station:DISL:MHPA:1,2008-04-06T02:30:00Z,30.6671,-87.9365,-0.9,20.78,2 
DISL,ioos:station:DISL:MHPA:1,2008-04-06T03:00:00Z,30.6671,-87.9365,-0.9,20.73,2 
DISL,ioos:station:DISL:MHPA:1,2008-04-06T03:30:00Z,30.6671,-87.9365,-0.9,20.69,2 
DISL,ioos:station:DISL:MHPA:1,2008-04-06T04:00:00Z,30.6671,-87.9365,-0.9,20.64,2 
DISL,ioos:station:DISL:MHPA:1,2008-04-06T04:30:00Z,30.6671,-87.9365,-0.9,20.61,2 
DISL,ioos:station:DISL:MHPA:1,2008-04-06T05:00:00Z,30.6671,-87.9365,-0.9,20.54,2 
DISL,ioos:station:DISL:MHPA:1,2008-04-06T05:30:00Z,30.6671,-87.9365,-0.9,20.49,2 
DISL,ioos:station:DISL:MHPA:1,2008-04-06T06:00:00Z,30.6671,-87.9365,-0.9,20.44,2 
DISL,ioos:station:DISL:MHPA:1,2008-04-06T06:30:00Z,30.6671,-87.9365,-0.9,20.45,2 
DISL,ioos:station:DISL:MHPA:1,2008-04-06T07:00:00Z,30.6671,-87.9365,-0.9,20.43,2 
DISL,ioos:station:DISL:MHPA:1,2008-04-06T07:30:00Z,30.6671,-87.9365,-0.9,20.43,2 
DISL,ioos:station:DISL:MHPA:1,2008-04-06T08:00:00Z,30.6671,-87.9365,-0.9,20.41,2 
DISL,ioos:station:DISL:MHPA:1,2008-04-06T08:30:00Z,30.6671,-87.9365,-0.9,20.4,2 
DISL,ioos:station:DISL:MHPA:1,2008-04-06T09:00:00Z,30.6671,-87.9365,-0.9,20.4,2 
DISL,ioos:station:DISL:MHPA:1,2008-04-06T09:30:00Z,30.6671,-87.9365,-0.9,20.34,2 
DISL,ioos:station:DISL:MHPA:1,2008-04-06T10:00:00Z,30.6671,-87.9365,-0.9,20.31,2 
DISL,ioos:station:DISL:MHPA:1,2008-04-06T10:30:00Z,30.6671,-87.9365,-0.9,20.27,2 
DISL,ioos:station:DISL:MHPA:1,2008-04-06T11:00:00Z,30.6671,-87.9365,-0.9,20.24,2 
DISL,ioos:station:DISL:MHPA:1,2008-04-06T11:30:00Z,30.6671,-87.9365,-0.9,20.21,2 
DISL,ioos:station:DISL:MHPA:1,2008-04-06T12:00:00Z,30.6671,-87.9365,-0.9,20.18,2 
DISL,ioos:station:DISL:MHPA:1,2008-04-06T12:30:00Z,30.6671,-87.9365,-0.9,20.15,2 
DISL,ioos:station:DISL:MHPA:1,2008-04-06T13:00:00Z,30.6671,-87.9365,-0.9,20.12,2 
DISL,ioos:station:DISL:MHPA:1,2008-04-06T13:30:00Z,30.6671,-87.9365,-0.9,20.07,2 
DISL,ioos:station:DISL:MHPA:1,2008-04-06T14:00:00Z,30.6671,-87.9365,-0.9,20.04,2 
DISL,ioos:station:DISL:MHPA:1,2008-04-06T14:30:00Z,30.6671,-87.9365,-0.9,20.03,2 
DISL,ioos:station:DISL:MHPA:1,2008-04-06T15:00:00Z,30.6671,-87.9365,-0.9,19.95,2 
DISL,ioos:station:DISL:MHPA:1,2008-04-06T15:30:00Z,30.6671,-87.9365,-0.9,20.01,2 
DISL,ioos:station:DISL:MHPA:1,2008-04-06T16:00:00Z,30.6671,-87.9365,-0.9,20.05,2 
DISL,ioos:station:DISL:MHPA:1,2008-04-06T16:30:00Z,30.6671,-87.9365,-0.9,20.09,2 
DISL,ioos:station:DISL:MHPA:1,2008-04-06T17:00:00Z,30.6671,-87.9365,-0.9,20.14,2 
DISL,ioos:station:DISL:MHPA:1,2008-04-06T17:30:00Z,30.6671,-87.9365,-0.9,20.1,2 
DISL,ioos:station:DISL:MHPA:1,2008-04-06T18:00:00Z,30.6671,-87.9365,-0.9,20.09,2 
DISL,ioos:station:DISL:MHPA:1,2008-04-06T18:30:00Z,30.6671,-87.9365,-0.9,20.15,2 
DISL,ioos:station:DISL:MHPA:1,2008-04-06T19:00:00Z,30.6671,-87.9365,-0.9,20.09,2 
DISL,ioos:station:DISL:MHPA:1,2008-04-06T19:30:00Z,30.6671,-87.9365,-0.9,21.27,2 
DISL,ioos:station:DISL:MHPA:1,2008-04-06T20:00:00Z,30.6671,-87.9365,-0.9,21.37,2 
DISL,ioos:station:DISL:MHPA:1,2008-04-06T20:30:00Z,30.6671,-87.9365,-0.9,21.47,2 
DISL,ioos:station:DISL:MHPA:1,2008-04-06T21:00:00Z,30.6671,-87.9365,-0.9,21.61,2 
DISL,ioos:station:DISL:MHPA:1,2008-04-06T21:30:00Z,30.6671,-87.9365,-0.9,21.82,2 
DISL,ioos:station:DISL:MHPA:1,2008-04-06T22:00:00Z,30.6671,-87.9365,-0.9,21.67,2 
DISL,ioos:station:DISL:MHPA:1,2008-04-06T22:30:00Z,30.6671,-87.9365,-0.9,21.39,2 
DISL,ioos:station:DISL:MHPA:1,2008-04-06T23:00:00Z,30.6671,-87.9365,-0.9,21.45,2 
DISL,ioos:station:DISL:MHPA:1,2008-04-06T23:30:00Z,30.6671,-87.9365,-0.9,21.42,2 
DISL,ioos:station:DISL:MHPA:1,2008-04-07T00:00:00Z,30.6671,-87.9365,-0.9,21.47,2 
DISL,ioos:station:DISL:MHPA:1,2008-04-07T00:30:00Z,30.6671,-87.9365,-0.9,21.64,2 
DISL,ioos:station:DISL:MHPA:1,2008-04-07T01:00:00Z,30.6671,-87.9365,-0.9,21.68,2 
DISL,ioos:station:DISL:MHPA:1,2008-04-07T01:30:00Z,30.6671,-87.9365,-0.9,21.83,2 